Location: Zagreb
(45.8000°N, 16.0000°E)
Time: 00:21:14
(UTC+01:00)

Transit 2A Rocket - Pass Details

Date: 10 October 2020
Orbit: 586 x 916 km, 66.7° (Epoch: 28 October)

Event Time Altitude Azimuth Distance (km) Brightness Sun altitude
Rises 00:43:14 0° 319° (NW) 3,351 - -50.9°
Reaches altitude 10° 00:46:01 10° 309° (NW) 2,359 - -50.9°
Maximum altitude 00:50:38 30° 250° (WSW) 1,312 - -50.9°
Drops below altitude 10° 00:54:54 10° 190° (S) 2,152 - -50.8°
Sets 00:57:20 0° 179° (S) 3,010 - -50.8°
